Flag for Canada

Past Weather in St. John's, Newfoundland and Labrador, Canada — Yesterday and Last 2 Weeks

Now
72 °F

Passing clouds.


Feels Like: 69 °F
Forecast: 73 / 62 °F
Wind: 17 mph from Southwest

Location: St. John's
Current Time: Sep 30, 2020 at 7:29:24 pm
Latest Report: Sep 30, 2020 at 6:54 pm
Visibility: 15 mi
Pressure30.09 "Hg
Humidity: 88%
Dew Point: 68 °F
Location of St. John'sLocation

Past Weather in St. John's — Graph

°F

St. John's Temperature Yesterday

Maximum temperature yesterday: 73 °F (at 1:30 pm)
Minimum temperature yesterday: 63 °F (at 12:30 am)
Average temperature yesterday: 66 °F

High & Low Weather Summary for the Past Weeks

 TemperatureHumidityPressure
High77 °F (Sep 30, 12:30 pm)100% (Sep 18, 5:30 pm)30.45 "Hg (Sep 18, 5:30 pm)
Low36 °F (Sep 21, 12:46 am)34% (Sep 16, 12:30 pm)29.38 "Hg (Sep 24, 3:30 am)
Average57 °F82%30.05 "Hg
* Reported Sep 15 6:30 pm — Sep 30 6:30 pm, St. John's. Weather by CustomWeather, © 2020

Note: Actual official high and low records may vary slightly from our data, if they occured in-between our weather recording intervals... More about our weather records

St. John's Weather History for the Previous 24 Hours

Scroll right to see more
 ConditionsComfort  
Time TempWeatherWind HumidityBarometerVisibility
6:30 pm
Wed, Sep 30
72 °FPassing clouds.15 mph88%30.09 "Hg15 mi
5:30 pm73 °FPartly sunny.17 mph83%30.09 "Hg15 mi
3:30 pm75 °FPartly sunny.21 mph78%30.12 "Hg15 mi
2:30 pm77 °FPartly sunny.18 mph74%30.13 "Hg15 mi
1:30 pm77 °FPartly sunny.24 mph74%30.15 "Hg15 mi
12:30 pm77 °FPartly sunny.21 mph74%30.18 "Hg15 mi
11:30 am75 °FPartly sunny.15 mph78%30.19 "Hg15 mi
10:30 am72 °FPartly sunny.18 mph88%30.20 "Hg15 mi
9:30 am70 °FLow clouds.13 mph88%30.22 "Hg12 mi
8:30 am68 °FMostly cloudy.12 mph94%30.22 "Hg12 mi
8:12 am66 °FMostly cloudy.12 mph94%30.23 "Hg12 mi
7:30 am66 °FPartly sunny.10 mph94%30.23 "Hg12 mi
6:30 am66 °FLow clouds.13 mph94%30.24 "Hg12 mi
5:30 am64 °FLow clouds.9 mph100%30.24 "Hg12 mi
4:30 am64 °FLow clouds.8 mph100%30.24 "Hg15 mi
3:30 am64 °FPassing clouds.12 mph100%30.24 "Hg15 mi
2:30 am64 °FLow clouds.10 mph100%30.24 "Hg15 mi
2:10 am64 °FPassing clouds.13 mph94%30.24 "Hg15 mi
1:30 am64 °FPassing clouds.14 mph94%30.24 "Hg15 mi
12:53 am64 °FPartly cloudy.13 mph94%30.25 "Hg15 mi
12:30 am64 °FPassing clouds.13 mph100%30.25 "Hg15 mi
11:30 pm
Tue, Sep 29
64 °FPassing clouds.17 mph100%30.25 "Hg15 mi
10:30 pm64 °FMostly cloudy.21 mph94%30.25 "Hg15 mi
9:30 pm64 °FMostly cloudy.20 mph94%30.26 "Hg15 mi
8:30 pm66 °FMostly cloudy.21 mph94%30.25 "Hg15 mi
7:30 pm66 °FMostly cloudy.21 mph94%30.24 "Hg15 mi
Weather by CustomWeather, © 2020

See weather overview